Tracking 31013 objects as of 10-Jul-2025
HD Live streaming from Space Station
objects crossing your sky now

DELTA 1 DEB

Track DELTA 1 DEB now!
10-day predictions


NORAD ID: 14509
Int'l Code: 1976-077EQ
Perigee: 1,505.6 km
Apogee: 1,761.0 km
Inclination: 102.3 °
Period: 118.8 minutes
Semi major axis: 8004 km
RCS: 0.1037 m2 (medium)
Launch date: July 29, 1976
Source: United States (US)
Launch site: AIR FORCE WESTERN TEST RANGE (AFWTR)

Note: This is SATELLITE DEBRIS
Your satellite tracking list
Your tracking list is empty




NASA's NSSDC Master Catalog

Two Line Element Set (TLE):
1 14509U 76077EQ  25191.46901476  .00000122  00000-0  16796-2 0  9997
2 14509 102.3158 164.5636 0159545 120.7506   2.1304 12.12323966891230
Source of the keplerian elements: AFSPC